Showing default

COSMOS 2575, 58929

Orbit data source: Space-Track

COSMOS 2575, 58929 is a payload satellite owned by MO RF (CIS) in SSO that was launched on Fri, 09 Feb 2024 UTC via a SOYUZ-2-1V launch vehicle from the Plesetsk Missile And Space Complex (PKMTR). Payloads include a variety of satellites, spacecraft, and rockets equipped with specific instruments for various scientific and technological missions. These include communications satellites like Starlink; space stations such as the ISS; scientific satellites like the Hubble; Earth observation satellites from companies like Planet Labs, Umbra, and HawkEye 360; GPS; miniature CubeSats for education and research; and military/defense satellites.

Not visible in the next 10 days
COSMOS 2575 details
Identifier
58929, 2024-026A
Orbit
SSO
Last TLE update10 hours ago
Origin
Flag of CISMO RF (CIS)
ManufacturerVNIIEM
MissionOperational spacecraft
Bus & MotorEMKA, Unknown motor
Mass520 kg wet, ~500 kg dry
Launch date (UTC)
2024-02-09 (10 months ago)
Launch vehicle
SOYUZ-2-1V
Launch site
Plesetsk Missile And Space Complex (PKMTR)
Object type
Payload
Rocket body
Debris
Shape & HBRUnknown
Radar Cross SectionLarge (>1 m²)

Expand to show TLE details & history

TLE from 10 hours ago
0 COSMOS 2575
1 58929U 24026A   24356.16881743  .00092374  48700-5  32297-3 0  9990
2 58929  96.6971 249.7003 0001809 114.4881 245.6582 15.89352364 50040
Epoch: 2024-12-21T04:03Z
Definitive object data (Epoch: 2024-12-21T04:03:05.825Z)
Latitude-0.00007°
Longitude98.7022°
Altitude307.8 km
Speed7.723 km/s
True Right ascension16h 38m 48s
True Declination0° 00' 00"
Sunlit
Object was in daylight at TLE epoch
Visualization TLE readout
Latitude35.52764°
Longitude-76.11852°
Altitude307.796 km
Speed7.727 km/s
Apparent Right ascension02h 59m 58s
Apparent Declination-1° 20' 35"
Sunlit
Object is in full shadow
Visualization observer readout
Local Sidereal Time12:45:22
Azimuth312.972° NW
Elevation-40.795°
Doppler factor1
Orbital elements
Apogee altitude302.15 km
Perigee altitude299.734 km
Semi-major axis6,679.079 km
Eccentricity0.0001809
Inclination96.6971°
RAAN249.7003°
Arg. of periapsis114.4881°
True anomaly245.63931°
Mean anomaly245.6582°
Eccentric anomaly245.64876°
Mean motion3.9762 °/min
BSTAR0.00032297
Orbital period90.54 mins
Loading maneuver chart data...
Loading historical data...
Loading historical data...
Loading historical data...
Loading historical data...
Loading historical data...
Loading historical data...
Loading historical data...
Other satellites on launch #26 in the year 2024 (2024-02-09 UTC)

COSMOS 2575 Visibility forecast

Observer location: undefined°, undefined

COSMOS 2575 is not visible in the next 10 days
Span
Click to sort rows by Start time (UTC) header in descending order
Start Az.
Max El. time (UTC)
Max El. Az.
Max El.
End time (UTC)
End Az.
|